Location: Berg
(47.2344°N, 9.5296°E)
Time: 06:11:47
(UTC+00:00)

AO-109 - Visible Passes

Search period start: 05 December 2021 00:00
Search period end: 15 December 2021 00:00
Orbit: 474 x 522 km, 60.7° (Epoch: 04 December)

Date Brightness Start Highest point End Pass type
(mag) Time Alt. Az. Time Alt. Az. Time Alt. Az.
05 Dec ? 04:24:06 53° E 04:24:06 53° E 04:27:11 10° ESE visible
05 Dec ? 05:58:44 11° W 06:00:51 17° WSW 06:03:14 10° SSW visible
06 Dec ? 04:03:39 28° ESE 04:03:39 28° ESE 04:05:35 10° ESE visible
06 Dec ? 05:38:18 16° W 05:39:18 18° WSW 05:41:48 10° SSW visible
07 Dec ? 03:43:17 15° ESE 03:43:17 15° ESE 03:43:59 10° ESE visible
07 Dec ? 05:17:56 19° SW 05:17:56 19° SW 05:20:21 10° SSW visible
08 Dec ? 04:57:39 16° SSW 04:57:39 16° SSW 04:58:53 10° S visible
13 Dec ? 18:30:41 10° SSW 18:30:54 11° SSW 18:30:54 11° SSW visible
14 Dec ? 18:09:04 10° SSW 18:10:35 22° SSW 18:10:35 22° SSW visible
